Location: Libas
(9.8833°N, 125.9833°E)
Time: 21:37:03
(UTC+00:00)

Cosmos 1726 Rocket - Pass Details

Date: 27 October 2020
Orbit: 603 x 629 km, 82.5° (Epoch: 26 November)

Event Time Altitude Azimuth Distance (km) Brightness Sun altitude
Rises 20:37:36 0° 2° (N) 2,904 6.9 -12.4°
Reaches altitude 10° 20:39:52 10° 5° (N) 1,998 6.1 -11.9°
Maximum altitude 20:44:14 60° 86° (E) 717 4.2 -10.8°
Drops below altitude 10° 20:48:36 10° 166° (SSE) 1,995 6.5 -9.8°
Sets 20:50:51 0° 169° (S) 2,899 7.3 -9.2°
